Visalia, CA

10:18 PM PDT on June 18, 2018 (GMT -0700)
Visalia Municipal

Weather History for KVIS - October, 2017

Change the Weather History Date:

Saturday, October 7, 2017

  Actual Average Record
Temperature  
Mean Temperature 68 °F -  
Max Temperature 87 °F 84 °F 97 °F (1930)
Min Temperature 50 °F 54 °F 41 °F (1957)
Cooling Degree Days 4    
Growing Degree Days 18 (Base 50)    
Moisture  
Dew Point 44 °F    
Average Humidity 48    
Maximum Humidity 74    
Minimum Humidity 20    
Precipitation  
Precipitation 0.00 in - - ()
Sea Level Pressure  
Sea Level Pressure 29.90 in    
Wind  
Wind Speed 3 mph (ESE)    
Max Wind Speed 8 mph    
Max Gust Speed -    
Visibility 10 miles    
Events      
Averages and records for this station are not official NWS values.
T = Trace of Precipitation, MM = Missing Value Source: NWS Daily Summary

Daily Weather History Graph

Daily Weather History Graph

Search for Another Location

Airport or City:

Astronomy

Oct. 07, 2017 Rise Set
Actual Time 6:58 AM PDT 6:31 PM PDT
Civil Twilight 6:32 AM PDT 6:57 PM PDT
Nautical Twilight 6:02 AM PDT 7:27 PM PDT
Astronomical Twilight 5:32 AM PDT 7:57 PM PDT
Moon 8:16 PM PDT (10/7) 8:55 AM PDT (10/7)
Length of Visible Light 12h 25m
Length of Day
11h 33m
Waning Gibbous, 95% of the Moon is Illuminated
Oct 7
Waning Gibbous
Oct 12
Last Quarter
Oct 19
New
Oct 27
First Quarter
Nov 3
Full

Hourly Weather History & Observations

Time (PDT) Temp. Dew Point Humidity Pressure Visibility Wind Dir Wind Speed Gust Speed Precip Events Conditions
12:56 AM 55.9 °F 46.0 °F 69% 29.99 in 10.0 mi ESE 3.5 mph - N/A   Clear
1:56 AM 53.1 °F 44.1 °F 71% 29.99 in 10.0 mi ESE 5.8 mph - N/A   Clear
2:56 AM 53.1 °F 43.0 °F 69% 29.98 in 10.0 mi East 3.5 mph - N/A   Clear
3:56 AM 52.0 °F 42.1 °F 69% 29.96 in 10.0 mi Calm Calm - N/A   Clear
4:56 AM 52.0 °F 43.0 °F 71% 29.97 in 10.0 mi Calm Calm - N/A   Clear
5:56 AM 51.1 °F 43.0 °F 74% 29.97 in 10.0 mi East 4.6 mph - N/A   Clear
6:56 AM 50.0 °F 41.0 °F 71% 29.97 in 10.0 mi Calm Calm - N/A   Clear
7:56 AM 51.1 °F 43.0 °F 74% 29.97 in 10.0 mi SE 4.6 mph - N/A   Clear
8:56 AM 62.1 °F 42.1 °F 48% 29.97 in 10.0 mi SE 8.1 mph - N/A   Clear
9:56 AM 68.0 °F 43.0 °F 40% 29.97 in 10.0 mi Calm Calm - N/A   Clear
10:56 AM 73.9 °F 44.1 °F 34% 29.96 in 10.0 mi SE 4.6 mph - N/A   Clear
11:56 AM 79.0 °F 43.0 °F 28% 29.94 in 10.0 mi Variable 3.5 mph - N/A   Clear
12:56 PM 82.0 °F 42.1 °F 24% 29.91 in 10.0 mi WNW 3.5 mph - N/A   Clear
1:56 PM 84.0 °F 42.1 °F 23% 29.88 in 10.0 mi Calm Calm - N/A   Clear
2:56 PM 86.0 °F 42.1 °F 21% 29.86 in 10.0 mi Variable 4.6 mph - N/A   Clear
3:56 PM 87.1 °F 43.0 °F 21% 29.83 in 10.0 mi West 3.5 mph - N/A   Clear
4:56 PM 87.1 °F 41.0 °F 20% 29.82 in 10.0 mi NW 5.8 mph - N/A   Clear
5:56 PM 82.9 °F 45.0 °F 26% 29.81 in 10.0 mi NW 3.5 mph - N/A   Clear
6:56 PM 77.0 °F 45.0 °F 32% 29.80 in 10.0 mi Calm Calm - N/A   Clear
7:56 PM 71.1 °F 46.0 °F 41% 29.80 in 10.0 mi Calm Calm - N/A   Clear
8:56 PM 66.0 °F 46.9 °F 50% 29.81 in 10.0 mi Calm Calm - N/A   Clear
9:56 PM 63.0 °F 45.0 °F 52% 29.81 in 10.0 mi Calm Calm - N/A   Clear
10:56 PM 62.1 °F 48.0 °F 60% 29.81 in 10.0 mi Calm Calm - N/A   Clear
11:56 PM 57.9 °F 48.0 °F 70% 29.81 in 10.0 mi Calm Calm - N/A   Clear